Location: La Brionne
(46.1728°N, 1.7849°E)
Time: 21:33:46
(UTC+00:00)

Cosmos 1340 - Pass Details

Date: 16 June 2021
Orbit: 498 x 504 km, 81.2° (Epoch: 02 August)

Event Time Altitude Azimuth Distance (km) Brightness Sun altitude
Exits shadow 22:26:33 20° 222° (SW) 1,211 4.3 -17.7°
Maximum altitude 22:28:48 43° 285° (WNW) 720 3.6 -17.8°
Drops below altitude 10° 22:32:26 10° 358° (N) 1,727 6.5 -18.0°
Sets 22:34:39 0° 5° (N) 2,617 7.5 -18.2°
